Location: Bogis-Bossey
(46.3500°N, 6.1667°E)
Time: 08:54:18
(UTC+00:00)

USA 238 DEB - Pass Details

Date: 04 March 2024
Orbit: 926 x 1285 km, 63.4° (Epoch: 15 April)

Event Time Altitude Azimuth Distance (km) Brightness Sun altitude
Exits shadow 04:15:02 28° 293° (WNW) 1,807 4.5 -20.3°
Maximum altitude 04:17:11 34° 328° (NNW) 1,631 4.5 -19.9°
Drops below altitude 10° 04:23:27 10° 32° (NNE) 2,960 6.6 -18.9°
Sets 04:26:33 0° 42° (NE) 3,981 7.5 -18.4°
